CAPE
0 0 0 0 0 0 0 0 0 72 84 84 116 126 522 623 389 116 91 99 3 0 0 27 95 188 404 482 421 425 449 683 518 385 364 248 79 193 512 828 1154 1343 1361 1638
0 0 0 0 0 0 0 0 0 35 67 59 66 99 137 630 598 423 87 84 100 1 1 35 121 151 281 471 440 458 429 681 684 428 674 234 468 639 911 1250 1399 1468 1423 1901
0 0 0 0 0 0 0 0 0 3 53 35 39 37 0 531 582 531 415 98 99 19 16 29 122 235 200 355 420 454 556 671 754 762 581 608 742 747 835 1147 1464 1489 1479 1864
0 0 0 0 0 0 0 0 0 0 16 44 33 8 14 38 605 582 528 447 230 112 12 16 113 223 213 267 303 600 632 633 681 930 794 1192 578 607 777 1004 1215 1565 1561 1638
0 0 0 0 0 0 0 0 0 0 0 0 0 1 6 83 177 493 611 552 462 310 142 92 95 206 196 240 219 196 684 975 1086 1172 1192 936 1017 657 858 806 1243 1728 1690 1629
0 0 0 0 0 0 0 0 0 0 0 0 0 0 0 0 131 421 555 602 591 451 366 281 184 206 219 213 225 208 648 933 1059 1009 1012 1513 1674 1231 810 944 814 958 1310 1431
0 0 0 0 0 0 0 0 0 0 0 0 0 0 0 0 15 148 441 620 624 569 465 396 296 256 306 528 378 489 591 720 811 957 1125 1245 1592 1797 1449 1265 835 957 748 1191
0 0 0 0 0 0 0 0 0 0 0 0 0 0 0 0 0 25 224 455 594 673 549 489 380 533 567 654 802 423 694 771 791 856 1183 1374 1575 779 757 1244 722 691 534 768
0 0 0 0 0 0 0 0 0 0 0 0 0 0 0 0 0 0 32 279 587 733 662 581 491 527 713 683 735 786 840 811 771 543 1077 1279 1408 1365 990 1538 1246 747 1192 600
0 0 0 0 0 0 0 0 0 0 0 0 0 0 0 0 0 0 0 88 406 624 768 691 640 606 748 633 686 748 773 864 867 760 882 936 1221 1322 1374 1376 1444 1406 903 991
0 0 0 0 0 0 0 0 0 0 0 0 0 0 0 0 0 0 0 0 107 471 703 765 902 910 777 553 685 772 667 908 835 847 882 1011 981 1012 1143 994 1094 1594 1159 1319
0 0 0 0 0 0 0 0 0 43 0 0 0 0 0 0 0 0 0 0 5 189 495 755 816 799 818 999 892 766 840 634 821 869 968 975 964 1021 875 1264 997 1387 1669 1389
0 0 0 0 0 0 0 0 0 0 0 0 0 0 0 0 0 0 0 0 12 135 307 510 468 750 1095 1075 1097 987 915 651 582 922 636 851 986 909 1311 1427 1385 1450 1605 1718
3 0 0 0 0 0 0 0 0 0 1 0 0 0 0 0 0 0 0 0 0 12 182 333 222 582 925 1056 1197 1207 1018 764 770 738 835 1135 1267 1343 1304 1647 1783 1341 1857 1816
30 0 0 0 0 0 0 0 0 0 0 10 1 5 0 0 0 0 0 0 0 0 3 264 352 540 874 1188 1149 1237 1160 1205 1034 1297 1210 1335 1479 1609 1765 1940 2011 1762 1741 1976
17 0 10 0 0 0 0 0 0 0 0 0 0 0 0 0 0 0 0 4 24 50 1 26 296 654 781 1092 1143 1144 1235 1300 1359 1509 1498 1623 1737 1855 1941 2108 2182 2040 1971 1953
81 35 23 0 12 0 0 0 0 0 0 0 0 0 0 0 244 160 124 132 141 209 446 250 3 682 910 1092 1292 1218 1327 1417 1472 1594 1780 1939 2022 2040 2139 2246 2401 2534 2298 2061
64 55 60 0 23 0 3 15 0 6 0 0 0 0 0 77 503 315 24 6 30 118 318 604 314 36 1001 790 881 1246 1277 1571 1595 1726 1892 2128 2198 2173 2260 2320 2382 2575 2514 2608
92 87 0 9 23 39 130 12 5 31 0 0 0 0 83 274 853 672 442 717 306 330 303 922 890 0 849 1049 1360 1520 1703 1732 1747 1837 1961 2215 2324 2357 2427 2402 2402 2197 2084 2151
57 81 0 3 12 61 57 13 2 0 3 0 0 0 363 460 771 198 711 425 750 1005 1111 772 180 5 817 1220 1234 1630 1694 2004 2018 2071 2133 2379 2531 2611 2690 2809 2824 2820 2466 2136
0 1 0 10 12 21 108 85 35 55 5 54 5 28 299 281 206 408 833 1095 1080 891 879 726 493 1038 1222 1450 1471 1814 2099 2312 2170 2078 2183 2717 2819 2899 3000 3114 3202 2839 2631 2832
0 0 1 5 3 4 83 108 85 27 69 68 71 90 258 330 678 1100 1166 1173 1008 801 573 1205 946 1092 1336 1591 1766 2029 2344 2713 2950 3037 2941 3118 3159 2587 2569 3165 3028 2937 3163 3000
0 0 1 0 1 0 29 103 73 54 71 73 57 145 276 554 836 1031 1073 1568 1226 921 769 848 1357 1547 1500 1284 1848 1997 2184 2723 2936 3202 3315 3159 3136 2929 3356 3169 3201 2857 3061 2919
0 0 0 0 0 36 88 70 80 76 65 59 101 187 301 655 714 1062 1324 1709 1644 1410 1181 993 1040 1281 1545 1891 2122 2286 2479 1972 2390 2995 3261 3299 3268 3058 3269 2930 3001 3016 3088 3125
0 0 13 76 7 1 41 29 27 27 40 104 95 221 331 587 931 1031 1140 1157 1158 1318 1834 1404 1324 1337 1437 1647 1829 1989 1971 2630 2300 2231 2503 2646 2704 2815 3181 3287 2802 3191 3497 3150
0 0 0 8 4 39 90 91 18 32 65 68 196 240 319 465 679 686 934 640 849 1035 1170 1409 1564 1630 1743 1800 1923 2076 2112 2175 2445 3255 2691 2139 2068 2194 2730 2073 2208 2519 2798 2760
CIN
-0 -0 -0 -0 -0 -0 -0 -0 -0 -10 -13 -29 -63 -53 -110 -151 -165 -239 -179 -113 -31 -0 -0 -206 -125 -75 -35 -28 -41 -55 -87 -69 -63 -76 -66 -71 -75 -77 -54 -53 -65 -64 -44 -31
-0 -0 -0 -0 -0 -0 -0 -0 -0 -0 -16 -14 -24 -54 -65 -139 -169 -192 -182 -120 -53 -81 -81 -207 -134 -105 -42 -36 -55 -58 -78 -76 -74 -74 -58 -92 -69 -47 -33 -39 -50 -54 -47 -26
-0 -0 -0 -0 -0 -0 -0 -0 -0 -1 -4 -11 -17 -30 -0 -122 -142 -136 -154 -146 -68 -84 -292 -239 -175 -121 -103 -47 -54 -66 -74 -73 -75 -62 -67 -74 -63 -60 -37 -31 -24 -46 -50 -29
-0 -0 -0 -0 -0 -0 -0 -0 -0 -0 -2 -1 -2 -25 -51 -37 -124 -143 -151 -184 -209 -56 -274 -261 -195 -143 -141 -109 -87 -58 -70 -74 -73 -63 -48 -30 -44 -34 -24 -24 -20 -28 -53 -36
-0 -0 -0 -0 -0 -0 -0 -0 -0 -0 -0 -0 -0 -1 -54 -79 -73 -115 -160 -187 -197 -212 -227 -265 -261 -201 -179 -133 -115 -104 -57 -50 -40 -39 -38 -45 -25 -29 -30 -30 -23 -26 -46 -42
-0 -0 -0 -0 -0 -0 -0 -0 -0 -0 -0 -0 -0 -0 -0 -0 -96 -110 -142 -196 -204 -228 -230 -221 -223 -163 -144 -126 -136 -120 -65 -53 -51 -56 -54 -32 -22 -31 -42 -30 -23 -17 -14 -25
-0 -0 -0 -0 -0 -0 -0 -0 -0 -0 -0 -0 -0 -0 -0 -0 -26 -92 -111 -187 -230 -244 -243 -209 -215 -201 -167 -105 -122 -100 -87 -67 -64 -61 -52 -48 -36 -33 -42 -45 -33 -20 -21 -16
-0 -0 -0 -0 -0 -0 -0 -0 -0 -0 -0 -0 -0 -0 -0 -0 -0 -97 -79 -111 -193 -224 -230 -233 -228 -209 -194 -154 -100 -155 -109 -91 -77 -68 -60 -58 -52 -59 -59 -50 -42 -43 -45 -35
-0 -0 -0 -0 -0 -0 -0 -0 -0 -0 -0 -0 -0 -0 -0 -0 -0 -0 -109 -103 -156 -208 -227 -236 -232 -223 -204 -183 -162 -152 -122 -112 -99 -132 -74 -73 -71 -65 -65 -55 -73 -53 -49 -52
-0 -0 -0 -0 -0 -0 -0 -0 -0 -0 -0 -0 -0 -0 -0 -0 -0 -0 -0 -95 -117 -175 -211 -217 -219 -210 -205 -217 -191 -158 -152 -153 -140 -115 -106 -99 -98 -99 -79 -77 -82 -59 -71 -69
-0 -0 -0 -0 -0 -0 -0 -0 -0 -0 -0 -0 -0 -0 -0 -0 -0 -0 -0 -0 -108 -131 -192 -230 -249 -247 -245 -226 -220 -209 -190 -158 -146 -136 -129 -112 -121 -132 -109 -108 -110 -74 -77 -71
-0 -0 -0 -0 -0 -0 -0 -0 -0 -0 -0 -0 -0 -0 -0 -0 -0 -0 -0 -0 -51 -151 -173 -213 -229 -296 -245 -232 -217 -242 -226 -186 -186 -180 -160 -149 -150 -141 -144 -108 -127 -99 -75 -73
-0 -0 -0 -0 -0 -0 -0 -0 -0 -0 -0 -0 -0 -0 -0 -0 -0 -0 -0 -0 -210 -199 -173 -211 -245 -283 -245 -263 -255 -233 -263 -229 -215 -189 -211 -171 -147 -157 -126 -129 -113 -116 -98 -71
-2 -0 -0 -0 -0 -0 -0 -0 -0 -0 -0 -0 -0 -0 -0 -0 -0 -0 -0 -0 -0 -123 -237 -225 -272 -287 -314 -327 -329 -318 -285 -267 -231 -228 -197 -176 -159 -157 -152 -132 -107 -137 -112 -83
-0 -0 -0 -0 -0 -0 -0 -0 -0 -0 -0 -0 -0 -0 -0 -0 -0 -0 -0 -0 -0 -0 -102 -252 -258 -295 -349 -339 -375 -355 -316 -279 -257 -252 -213 -211 -195 -162 -142 -116 -110 -128 -124 -96
-0 -0 -0 -0 -0 -0 -0 -0 -0 -0 -0 -0 -0 -0 -0 -0 -0 -0 -0 -88 -248 -289 -6 -370 -305 -277 -309 -350 -451 -439 -416 -357 -310 -283 -250 -226 -199 -162 -147 -122 -110 -109 -117 -119
-3 -12 -9 -0 -4 -1 -0 -0 -0 -0 -0 -0 -0 -0 -0 -0 -118 -222 -265 -298 -343 -389 -353 -404 -361 -286 -321 -344 -435 -487 -481 -417 -360 -325 -263 -222 -189 -169 -149 -122 -94 -81 -98 -113
-5 -12 -1 -0 -4 -0 -0 -5 -0 -0 -0 -0 -0 -0 -0 -185 -113 -193 -325 -116 -359 -439 -466 -440 -481 -450 -347 -368 -384 -454 -458 -472 -401 -341 -288 -235 -196 -174 -139 -116 -107 -88 -84 -78
-0 -1 -0 -3 -3 -3 -8 -6 -0 -0 -0 -0 -0 -0 -91 -113 -71 -84 -157 -168 -308 -385 -479 -444 -520 -0 -375 -393 -410 -458 -441 -442 -392 -355 -324 -267 -219 -175 -135 -132 -130 -141 -142 -129
-1 -0 -0 -18 -7 -3 -2 -12 -9 -0 -47 -0 -0 -0 -77 -92 -43 -130 -94 -232 -240 -265 -298 -526 -667 -76 -388 -437 -460 -470 -474 -441 -415 -377 -344 -271 -212 -177 -146 -130 -117 -120 -144 -173
-0 -3 -0 -8 -5 -24 -0 -3 -10 -23 -16 -46 -0 -153 -85 -56 -99 -88 -86 -123 -203 -324 -424 -540 -479 -398 -457 -470 -472 -482 -416 -425 -423 -361 -328 -248 -226 -192 -173 -151 -123 -137 -145 -123
-0 -0 -7 -25 -4 -8 -1 -1 -3 -11 -20 -26 -6 -54 -49 -43 -22 -8 -32 -109 -196 -305 -469 -344 -388 -371 -412 -427 -452 -411 -405 -352 -301 -267 -263 -224 -204 -243 -232 -165 -162 -151 -125 -136
-0 -0 -1 -0 -2 -0 -16 -3 -14 -7 -17 -16 -28 -23 -26 -4 -1 -5 -20 -17 -98 -234 -356 -376 -301 -330 -383 -431 -342 -335 -375 -334 -292 -243 -226 -227 -204 -212 -153 -171 -153 -173 -154 -161
-0 -0 -0 -0 -0 -3 -0 -0 -12 -21 -12 -17 -8 -6 -10 -4 -2 -0 -2 -7 -31 -89 -198 -302 -350 -380 -338 -267 -202 -283 -214 -326 -313 -273 -244 -225 -219 -223 -174 -197 -176 -170 -178 -172
-0 -0 -12 -8 -9 -1 -1 -1 -12 -35 -21 -8 -4 -3 -4 -0 -0 -0 -8 -37 -56 -60 -67 -172 -189 -258 -277 -261 -247 -228 -317 -206 -316 -300 -313 -312 -309 -282 -213 -171 -229 -188 -151 -187
-0 -0 -0 -8 -20 -2 -1 -12 -37 -29 -9 -3 -0 -2 -7 -0 -1 -35 -19 -90 -101 -101 -103 -111 -147 -152 -136 -144 -141 -141 -160 -200 -185 -98 -177 -251 -283 -334 -253 -202 -343 -299 -266 -257
Wind_Speed
nan nan nan nan nan nan nan nan nan nan nan nan 12 17 12 16 16 7 nan nan nan nan nan nan nan 7 8 8 7 8 9 13 13 11 9 11 nan 13 16 16 15 15 16 17
nan nan nan nan nan nan nan nan nan nan nan nan nan nan 15 11 11 7 nan nan 9 nan nan nan 4 9 9 8 7 9 10 12 13 16 15 16 12 12 14 14 12 14 14 16
nan nan nan nan nan nan nan nan nan nan nan nan nan nan nan 19 19 15 9 nan nan nan nan nan 5 7 8 8 7 10 10 14 13 14 16 15 12 12 10 12 12 13 13 14
nan nan nan nan nan nan nan nan nan nan nan nan nan nan nan nan 18 15 11 7 1 5 nan nan 10 6 9 9 9 11 12 14 14 11 13 11 13 12 11 13 13 11 11 13
nan nan nan nan nan nan nan nan nan nan nan nan nan nan nan nan 26 14 6 7 8 6 3 nan nan 9 11 12 11 12 14 16 12 11 12 12 12 9 8 10 12 12 9 12
nan nan nan nan nan nan nan nan nan nan nan nan nan nan nan nan 30 13 8 7 7 6 2 2 2 3 8 16 16 14 13 14 11 8 10 10 9 7 7 8 11 11 9 9
nan nan nan nan nan nan nan nan nan nan nan nan nan nan nan nan nan 22 14 5 6 7 5 3 3 3 3 8 11 16 14 11 10 8 9 8 6 6 4 4 6 9 10 8
nan nan nan nan nan nan nan nan nan nan nan nan nan nan nan nan nan nan 23 19 17 12 8 3 1 2 4 8 13 12 14 12 10 10 8 11 6 10 8 4 6 9 10 9
nan nan nan nan nan nan nan nan nan nan nan nan nan nan nan nan nan nan nan 29 17 12 8 6 4 3 5 9 13 13 13 15 13 10 12 11 9 8 7 6 6 8 8 8
nan nan nan nan nan nan nan nan nan nan nan nan nan nan nan nan nan nan nan nan 21 15 11 11 7 6 5 7 15 18 16 14 15 16 16 15 11 10 10 8 8 8 8 5
nan nan nan nan nan nan nan nan nan nan nan nan nan nan nan nan nan nan nan nan 23 16 12 11 7 7 5 9 13 14 15 16 17 18 17 16 13 10 11 9 10 10 8 6
nan nan nan nan nan nan nan nan nan nan nan nan nan nan nan nan nan nan nan nan nan 19 16 11 10 12 11 7 9 9 12 12 14 16 18 16 16 14 12 11 11 11 10 8
nan nan nan nan nan nan nan nan nan nan nan nan nan nan nan nan nan nan nan nan nan 26 24 18 18 12 13 12 10 10 11 8 11 17 17 18 17 15 13 14 14 13 12 10
nan nan nan nan nan nan nan nan nan nan nan nan nan nan nan nan nan nan nan nan nan nan 34 28 24 16 13 13 12 12 12 13 15 15 17 19 18 16 15 17 17 15 13 11
nan nan nan nan nan nan nan nan nan nan nan nan nan nan nan nan nan nan nan nan nan nan nan 32 26 25 18 16 16 18 18 18 17 17 15 14 18 20 21 20 19 17 14 12
nan nan nan nan nan nan nan nan nan nan nan nan nan nan nan nan nan nan nan nan nan nan nan nan 31 29 20 19 17 19 19 19 20 19 15 19 20 19 19 19 19 19 15 13
nan nan nan nan nan nan nan nan nan nan nan nan nan nan nan nan 44 50 49 57 59 57 58 53 nan 29 22 18 18 20 19 25 22 20 22 21 21 18 17 18 19 17 14 14
nan nan nan nan nan nan nan nan nan nan nan nan nan nan nan nan 49 53 nan nan nan 62 57 55 47 nan 24 19 16 20 23 23 25 24 22 22 21 19 21 20 17 16 17 14
nan nan nan nan nan nan 49 nan nan nan nan nan nan nan nan 40 43 41 59 63 60 60 57 52 46 nan 26 23 22 26 25 23 28 24 21 21 22 23 22 18 17 18 18 17
nan nan nan nan nan nan nan nan nan nan nan nan nan nan 53 44 41 49 55 55 55 58 54 32 27 nan 29 26 20 26 25 21 21 21 18 20 21 22 19 19 19 20 20 17
nan nan nan nan nan nan 65 nan nan nan nan nan nan nan 60 57 56 49 49 49 52 49 50 41 31 35 37 29 27 22 24 12 15 21 22 21 20 19 21 22 23 20 20 19
nan nan nan nan nan nan nan 50 nan nan nan nan nan nan 55 64 61 56 53 52 49 46 48 44 41 42 36 31 31 25 19 18 17 17 22 23 23 24 23 22 23 21 21 18
nan nan nan nan nan nan nan 66 nan nan nan nan nan 67 65 68 67 63 57 57 56 54 48 44 48 52 52 44 38 25 30 26 19 18 18 21 23 22 24 22 23 24 22 20
nan nan nan nan nan nan nan nan nan nan nan nan 66 62 66 68 70 63 60 60 60 58 51 56 53 57 56 58 61 49 39 25 22 20 19 21 18 20 25 27 27 25 25 24
nan nan nan nan nan nan nan nan nan nan nan 54 nan 59 59 68 69 68 64 65 61 62 59 57 58 60 60 53 52 49 51 38 40 21 20 19 16 18 20 32 33 29 29 34
nan nan nan nan nan nan nan nan nan nan nan nan 56 60 57 63 66 72 68 68 66 66 66 65 64 60 58 58 59 55 53 46 36 34 33 30 25 25 27 31 40 57 51 40
Wind_Direction
nan nan nan nan nan nan nan nan nan nan nan nan 191 184 221 263 266 264 nan nan nan nan nan nan nan 113 87 115 133 135 152 149 160 161 171 165 nan 130 120 111 101 87 82 83
nan nan nan nan nan nan nan nan nan nan nan nan nan nan 217 254 265 227 nan nan 52 nan nan nan 198 155 103 108 133 142 151 162 167 168 184 179 161 140 133 129 109 95 78 79
nan nan nan nan nan nan nan nan nan nan nan nan nan nan nan 204 223 243 227 nan nan nan nan nan 59 168 146 111 123 149 160 171 180 176 181 185 175 168 150 144 121 99 84 79
nan nan nan nan nan nan nan nan nan nan nan nan nan nan nan nan 210 235 248 277 320 62 nan nan 45 83 152 146 149 164 171 175 184 198 179 168 166 172 161 144 130 116 83 76
nan nan nan nan nan nan nan nan nan nan nan nan nan nan nan nan 192 218 293 294 283 288 80 nan nan 92 166 183 168 171 182 180 179 187 181 179 174 174 171 155 138 130 111 90
nan nan nan nan nan nan nan nan nan nan nan nan nan nan nan nan 198 198 240 222 232 219 211 175 50 111 163 196 177 174 190 184 193 199 184 184 181 161 175 171 152 143 137 116
nan nan nan nan nan nan nan nan nan nan nan nan nan nan nan nan nan 208 216 216 242 211 203 207 89 52 161 206 205 178 188 181 188 196 194 187 180 154 168 191 157 140 147 141
nan nan nan nan nan nan nan nan nan nan nan nan nan nan nan nan nan nan 191 173 204 197 193 179 285 210 167 193 204 203 186 184 190 191 208 209 183 178 161 157 174 164 156 138
nan nan nan nan nan nan nan nan nan nan nan nan nan nan nan nan nan nan nan 191 205 224 233 263 266 264 183 187 199 195 196 184 185 186 209 222 197 181 192 184 206 194 172 163
nan nan nan nan nan nan nan nan nan nan nan nan nan nan nan nan nan nan nan nan 193 204 214 231 247 239 191 169 187 196 196 187 186 188 201 208 207 198 207 207 202 204 194 184
nan nan nan nan nan nan nan nan nan nan nan nan nan nan nan nan nan nan nan nan 181 191 217 240 261 260 241 192 190 195 202 203 200 198 201 203 203 208 217 206 207 210 216 231
nan nan nan nan nan nan nan nan nan nan nan nan nan nan nan nan nan nan nan nan nan 180 199 213 250 251 230 231 217 201 206 212 221 217 212 212 215 214 221 215 221 219 218 228
nan nan nan nan nan nan nan nan nan nan nan nan nan nan nan nan nan nan nan nan nan 188 184 197 217 240 250 226 223 224 216 212 230 234 234 221 223 226 226 230 228 224 222 228
nan nan nan nan nan nan nan nan nan nan nan nan nan nan nan nan nan nan nan nan nan nan 189 195 213 212 242 253 233 229 227 225 237 242 237 232 233 237 230 239 234 230 230 230
nan nan nan nan nan nan nan nan nan nan nan nan nan nan nan nan nan nan nan nan nan nan nan 203 217 222 228 243 256 242 225 225 235 237 238 235 235 234 233 236 234 226 227 232
nan nan nan nan nan nan nan nan nan nan nan nan nan nan nan nan nan nan nan nan nan nan nan nan 201 223 235 248 263 275 261 243 237 237 239 238 237 235 236 233 230 227 221 227
nan nan nan nan nan nan nan nan nan nan nan nan nan nan nan nan 215 211 204 194 192 191 190 191 nan 212 225 241 257 282 282 261 251 239 240 241 239 237 235 233 232 235 231 227
nan nan nan nan nan nan nan nan nan nan nan nan nan nan nan nan 220 217 nan nan nan 192 188 188 192 nan 209 224 265 240 266 278 259 248 246 247 242 235 231 231 233 235 237 234
nan nan nan nan nan nan 207 nan nan nan nan nan nan nan nan 201 214 211 207 197 193 192 194 190 187 nan 203 219 231 252 264 276 261 250 250 251 243 237 233 233 237 235 233 231
nan nan nan nan nan nan nan nan nan nan nan nan nan nan 199 191 205 210 195 192 195 198 204 195 194 nan 214 217 234 249 269 281 276 256 248 243 238 237 232 229 233 229 226 226
nan nan nan nan nan nan 187 nan nan nan nan nan nan nan 205 202 205 194 187 189 197 200 188 197 197 211 213 213 229 244 253 287 274 246 237 234 234 231 231 231 226 225 225 224
nan nan nan nan nan nan nan 193 nan nan nan nan nan nan 203 202 205 198 192 194 191 196 197 213 212 208 215 206 226 236 235 231 256 255 230 229 235 231 230 234 232 226 229 228
nan nan nan nan nan nan nan 202 nan nan nan nan nan 199 194 199 201 195 192 194 190 185 197 202 205 204 200 200 209 216 221 236 243 249 244 233 235 235 230 232 233 230 233 234
nan nan nan nan nan nan nan nan nan nan nan nan 195 198 197 197 198 196 191 189 187 186 187 196 202 201 203 206 213 208 220 214 229 239 244 248 237 236 234 229 226 223 232 233
nan nan nan nan nan nan nan nan nan nan nan 197 nan 200 200 196 196 196 191 187 185 187 189 194 198 203 208 212 213 215 214 220 220 211 225 233 218 232 234 231 224 229 226 230
nan nan nan nan nan nan nan nan nan nan nan nan 201 198 199 199 194 196 193 189 188 189 186 193 201 202 206 209 209 210 211 217 220 205 210 216 225 241 232 228 230 228 227 247